Weather reports worldwide

Advertisment
Brest, France (7110): temperature & dewpoint: 10.08.2018 18:00:00 - 16.08.2018 18:00:00 (CEST)Brest, France (7110): temperature 5cm: 10.08.2018 18:00:00 - 16.08.2018 18:00:00 (CEST)Brest, France (7110): temperature -20cm & temperature -100cm: 10.08.2018 18:00:00 - 16.08.2018 18:00:00 (CEST)Brest, France (7110): wind speed & gusts: 10.08.2018 18:00:00 - 16.08.2018 18:00:00 (CEST)Brest, France (7110): wind direction: 10.08.2018 18:00:00 - 16.08.2018 18:00:00 (CEST)Brest, France (7110): reduced air pressure: 10.08.2018 18:00:00 - 16.08.2018 18:00:00 (CEST)Brest, France (7110): visibility: 10.08.2018 18:00:00 - 16.08.2018 18:00:00 (CEST)Brest, France (7110): sunshine duration: 10.08.2018 18:00:00 - 16.08.2018 18:00:00 (CEST)Brest, France (7110): precipitation: 10.08.2018 18:00:00 - 16.08.2018 18:00:00 (CEST)
Date & Time tt [°C] td [°C] tt 5cm [°C] tt -20cm [°C] tt -100cm [°C] ff [km/h] ff [kn] fx [km/h] fx [kn] dd ppp [hPa] vv [km] sd [min] rr [mm]
16.08.2018 18:00:00 18,6 9,9 26,1 18,9 17,7 20 11 36 19 NNW 1018,2 42 51 0,0
16.08.2018 17:00:00 19,0 11,3 21,2 18,9 17,7 20 11 37 20 NNW 1018,0 20 54 0,0
16.08.2018 16:00:00 17,6 10,9 18,4 18,9 17,7 23 12 34 19 NW 1018,0 34 12 0,0
16.08.2018 15:00:00 16,9 13,0 17,8 18,8 17,7 16 9 29 15 NW 1017,8 20 0 0,0
16.08.2018 14:00:00 16,3 15,8 16,0 18,8 17,7 9 5 16 9 NW 1017,5 16 0 0,0
16.08.2018 13:00:00 15,5 15,0 15,8 18,9 17,7 11 6 34 18 NNW 1017,5 16 0 0,2
16.08.2018 12:00:00 17,7 17,4 17,6 18,9 17,7 11 6 23 13 NW 1016,9 20 0 0,2
16.08.2018 11:00:00 17,0 17,0 16,8 18,9 17,8 16 9 29 16 WSW 1016,8 3,3 0 0,6
16.08.2018 10:00:00 16,6 16,6 16,5 18,9 17,7 18 10 31 17 SW 1016,8 3,7 0 0,2
16.08.2018 09:00:00 16,7 16,7 16,8 18,9 17,7 18 10 29 16 SW 1016,6 45 0 0,0
16.08.2018 08:00:00 16,7 16,7 16,3 19,0 17,7 19 10 27 15 SW 1016,6 18 0 0,0
16.08.2018 07:00:00 16,4 16,4 16,2 19,0 17,7 16 9 25 13 SW 1016,9 18 0 0,0
16.08.2018 06:00:00 16,3 16,3 16,1 19,1 17,7 15 8 24 13 SSW 1016,9 19 0 0,0
16.08.2018 05:00:00 16,2 16,2 16,0 19,1 17,7 13 7 21 11 SSW 1017,3 14 0 0,0
16.08.2018 04:00:00 16,2 16,2 16,1 19,2 17,7 13 7 24 13 SW 1018,0 7 0 0,0
16.08.2018 03:00:00 16,3 16,3 16,1 19,2 17,7 12 6 22 12 SSW 1018,6 11 0 0,4
16.08.2018 02:00:00 16,5 16,3 16,3 19,2 17,7 13 7 19 10 SW 1019,0 6 0 0,0
16.08.2018 01:00:00 16,7 16,2 16,5 19,3 17,7 16 8 23 12 SSW 1019,2 19 0 0,0
16.08.2018 00:00:00 16,8 16,2 16,5 19,3 17,7 13 7 22 12 SSW 1019,4 39 0 0,0
15.08.2018 23:00:00 17,3 15,8 17,0 19,3 17,7 14 8 22 12 SW 1020,1 34 0 0,0
15.08.2018 22:00:00 17,4 16,4 17,3 19,3 17,7 13 7 20 11 SW 1020,2 59 0 0,0
15.08.2018 21:00:00 17,6 16,8 17,6 19,3 17,7 14 8 27 14 SW 1020,1 49 0 0,0
15.08.2018 20:00:00 17,9 16,9 17,7 19,3 17,7 20 11 27 14 WSW 1020,1 23 0 0,0
15.08.2018 19:00:00 18,3 15,9 19,1 19,2 17,7 18 10 29 16 SW 1020,3 52 0 0,0
15.08.2018 18:00:00 19,3 15,6 21,0 19,2 17,7 16 9 26 14 SW 1020,6 53 0 0,0
15.08.2018 17:00:00 19,3 17,1 20,7 19,1 17,7 19 11 32 17 WSW 1021,0 29 0 0,0
15.08.2018 16:00:00 19,0 17,0 20,6 19,1 17,7 20 11 32 17 SW 1021,4 47 0 0,0
15.08.2018 15:00:00 19,2 17,5 20,6 19,0 17,7 21 11 29 16 WSW 1021,9 38 0 0,0
15.08.2018 14:00:00 19,2 16,6 19,8 19,0 17,7 21 11 30 16 SW 1022,0 27 0 0,0
15.08.2018 13:00:00 18,6 18,1 18,9 19,0 17,7 16 9 28 15 WSW 1022,4 27 0 0,0
15.08.2018 12:00:00 17,9 17,7 18,6 19,0 17,7 19 10 28 15 WSW 1022,4 7 0 0,4
15.08.2018 11:00:00 17,7 17,7 17,6 19,0 17,7 14 7 23 12 WSW 1022,5 6 0 0,0
15.08.2018 10:00:00 17,3 17,3 17,3 19,0 17,7 12 7 24 13 WSW 1022,3 4,0 0 0,2
15.08.2018 09:00:00 17,2 17,2 16,9 19,1 17,7 13 7 21 11 SW 1022,2 7 0 0,0
15.08.2018 08:00:00 17,0 17,0 16,6 19,1 17,7 12 7 17 9 SW 1022,2 14 0 0,0
15.08.2018 07:00:00 16,9 16,9 16,7 19,1 17,7 8 5 15 8 WSW 1022,1 8 0 0,0
15.08.2018 06:00:00 16,9 16,9 16,7 19,2 17,8 10 5 19 10 WSW 1022,3 8 0 0,0
15.08.2018 05:00:00 17,0 16,8 16,7 19,2 17,7 13 7 18 10 WSW 1022,4 11 0 0,0
15.08.2018 04:00:00 17,1 16,8 16,7 19,3 17,7 9 5 18 10 WSW 1022,4 9 0 0,0
15.08.2018 03:00:00 17,1 16,5 16,8 19,3 17,7 9 5 14 8 WSW 1022,8 18 0 0,0
15.08.2018 02:00:00 17,1 16,1 16,6 19,3 17,7 8 4 12 7 WSW 1023,1 20 0 0,0
15.08.2018 01:00:00 16,9 16,3 16,5 19,4 17,7 8 5 11 6 WSW 1023,1 31 0 0,0
15.08.2018 00:00:00 16,6 16,4 16,2 19,4 17,7 7 4 10 6 WSW 1023,5 15 0 0,0
14.08.2018 23:00:00 16,5 16,3 12,0 19,5 17,7 3 2 9 5 WNW 1023,6 18 0 0,0
14.08.2018 22:00:00 16,0 15,5 12,2 19,5 17,7 6 3 13 7 WNW 1023,3 2,1 11 0,0
14.08.2018 21:00:00 17,9 17,3 17,8 19,4 17,7 5 3 20 11 WNW 1022,5 26 14 0,0
14.08.2018 20:00:00 18,7 17,7 19,2 19,3 17,8 12 7 22 12 W 1022,4 19 0 0,0
14.08.2018 19:00:00 19,1 17,8 20,4 19,3 17,7 13 7 23 13 WNW 1022,3 10 0 0,0
14.08.2018 18:00:00 19,6 17,2 21,6 19,2 17,7 15 8 26 14 NW 1022,6 16 0 0,0
14.08.2018 17:00:00 20,8 17,6 25,3 19,1 17,7 13 7 21 12 NW 1022,5 49 4 0,0
14.08.2018 16:00:00 19,8 18,3 21,4 19,0 17,7 11 6 23 12 WNW 1022,3 53 0 0,0
14.08.2018 15:00:00 19,6 18,6 20,7 18,9 17,7 15 8 24 13 NW 1022,2 36 0 0,0
14.08.2018 14:00:00 19,3 18,5 20,9 18,9 17,7 12 7 21 12 NW 1021,9 14 0 0,0
14.08.2018 13:00:00 19,4 19,1 19,7 18,9 17,7 12 6 19 10 WNW 1021,6 4,5 0 0,2
14.08.2018 12:00:00 18,7 18,5 18,6 18,9 17,7 9 5 14 8 WNW 1021,4 3,2 0 0,0
14.08.2018 11:00:00 17,8 17,8 17,9 18,9 17,8 9 5 16 9 W 1021,0 13 0 0,0
14.08.2018 10:00:00 17,3 17,3 17,0 18,9 17,7 9 5 15 8 WSW 1020,6 11 0 0,2
14.08.2018 09:00:00 16,4 16,4 16,0 19,0 17,7 7 4 11 6 SW 1020,2 8 0 0,2
14.08.2018 08:00:00 16,0 15,7 15,8 19,0 17,8 3 2 9 5 WSW 1019,9 6 0 0,0
14.08.2018 07:00:00 16,1 15,1 15,6 19,1 17,7 5 3 16 9 W 1019,2 6 0 0,0
14.08.2018 06:00:00 16,2 14,9 15,7 19,1 17,7 11 6 21 12 NW 1019,0 41 0 0,0
14.08.2018 05:00:00 16,0 15,5 14,9 19,2 17,7 9 5 16 9 WNW 1018,7 46 0 0,0
14.08.2018 04:00:00 15,6 15,1 14,5 19,3 17,7 5 3 12 6 WNW 1018,5 32 0 0,0
14.08.2018 03:00:00 16,0 15,4 15,3 19,3 17,7 8 5 19 10 NW 1018,3 34 0 0,0
14.08.2018 02:00:00 15,7 15,2 13,5 19,4 17,7 9 5 15 8 NW 1018,1 31 0 0,0
14.08.2018 01:00:00 16,3 15,2 16,0 19,4 17,7 8 5 17 9 NW 1017,7 44 0 0,0
14.08.2018 00:00:00 16,5 14,7 16,3 19,5 17,8 7 4 17 9 WNW 1017,3 51 0 0,0
13.08.2018 23:00:00 16,7 14,5 16,4 19,5 17,8 9 5 18 10 NW 1016,9 48 0 0,0
13.08.2018 22:00:00 17,0 14,5 16,7 19,5 17,7 14 7 26 14 NW 1016,3 38 0 0,0
13.08.2018 21:00:00 17,2 14,3 16,7 19,5 17,8 11 6 25 13 NW 1015,6 59 0 0,0
13.08.2018 20:00:00 18,1 14,0 18,6 19,3 17,7 15 8 26 14 WNW 1014,7 54 39 0,0
13.08.2018 19:00:00 19,3 14,3 22,3 19,2 17,7 15 8 29 16 NNW 1014,4 32 20 0,0
13.08.2018 18:00:00 20,1 14,2 23,6 19,1 17,8 18 10 33 18 WNW 1014,0 49 46 0,0
13.08.2018 17:00:00 20,0 13,9 23,0 19,0 17,7 17 9 29 16 NW 1013,5 49 33 0,0
13.08.2018 16:00:00 20,0 15,0 23,4 18,9 17,7 16 9 28 15 WNW 1013,2 41 23 0,0
13.08.2018 15:00:00 19,7 15,3 24,0 18,8 17,7 16 9 28 15 NW 1013,0 49 4 0,0
13.08.2018 14:00:00 19,6 15,7 21,5 18,7 17,8 14 8 30 16 NW 1012,5 36 7 0,0
13.08.2018 13:00:00 20,2 15,6 21,2 18,7 17,8 13 7 26 14 WNW 1012,2 18 19 0,0
13.08.2018 12:00:00 19,3 17,6 19,6 18,7 17,8 14 8 29 16 WNW 1011,9 44 21 0,0
13.08.2018 11:00:00 18,4 17,1 18,1 18,6 17,8 10 6 20 11 W 1011,4 48 19 0,0
13.08.2018 10:00:00 16,8 16,8 17,0 18,7 17,8 9 5 12 7 WSW 1011,2 9 0 0,0
13.08.2018 09:00:00 16,1 16,1 15,9 18,7 17,8 8 5 11 6 WSW 1010,8 60 0 0,0
13.08.2018 08:00:00 15,8 15,8 15,6 18,8 17,8 7 4 13 7 W 1010,0 8 0 0,4
13.08.2018 07:00:00 15,7 15,7 15,6 18,8 17,8 7 4 14 8 W 1009,6 8 0 0,2
13.08.2018 06:00:00 15,8 15,8 15,4 18,8 17,8 9 5 14 8 WSW 1009,4 6 0 0,2
13.08.2018 05:00:00 15,7 15,7 15,4 18,9 17,8 6 3 11 6 SW 1009,4 13 0 0,0
13.08.2018 04:00:00 15,7 15,7 15,3 18,9 17,8 8 4 14 8 WSW 1009,3 17 0 0,2
13.08.2018 03:00:00 15,5 15,5 15,2 19,0 17,8 10 5 19 10 WSW 1009,4 19 0 0,0
13.08.2018 02:00:00 15,5 15,3 15,2 19,0 17,8 12 6 21 11 WSW 1009,5 6 0 0,0
13.08.2018 01:00:00 15,6 15,4 14,8 19,1 17,8 12 7 21 11 SW 1009,4 38 0 0,0
13.08.2018 00:00:00 15,8 15,6 15,4 19,1 17,8 10 5 26 14 WSW 1009,5 15 0 0,2
12.08.2018 23:00:00 15,9 15,7 15,6 19,1 17,8 14 8 27 14 WSW 1009,4 5 0 0,6
12.08.2018 22:00:00 16,8 15,1 16,0 19,1 17,8 17 9 29 15 SW 1009,2 5 0 0,0
12.08.2018 21:00:00 17,0 15,3 17,1 19,1 17,8 18 10 34 18 SW 1009,0 57 0 0,0
12.08.2018 20:00:00 17,2 15,4 17,5 19,1 17,8 14 8 36 20 WSW 1008,9 58 0 0,0
12.08.2018 19:00:00 18,0 15,3 18,0 19,0 17,8 22 12 39 21 WSW 1009,0 58 0 0,0
12.08.2018 18:00:00 18,7 15,0 19,9 18,9 17,8 24 13 38 20 WSW 1009,1 60 12 0,0
12.08.2018 17:00:00 19,2 15,1 19,0 18,9 17,8 24 13 35 19 SW 1009,2 20 3 0,0
12.08.2018 16:00:00 19,1 15,8 19,8 18,8 17,8 22 12 35 19 SW 1009,5 34 2 0,0
12.08.2018 15:00:00 18,3 17,5 19,0 18,8 17,8 24 13 36 20 SW 1009,9 32 0 0,0
12.08.2018 14:00:00 18,3 17,3 19,3 18,7 17,8 21 11 29 15 SW 1010,1 11 0 0,0
12.08.2018 13:00:00 18,8 18,0 20,7 18,6 17,8 16 9 23 13 SW 1010,1 53 0 0,0
12.08.2018 12:00:00 18,5 18,5 17,5 18,6 17,8 10 5 20 11 SSW 1010,2 59 0 0,6
12.08.2018 11:00:00 17,3 17,3 17,5 18,5 17,8 14 8 44 24 WSW 1010,5 5 0 2,7
12.08.2018 10:00:00 17,6 17,6 17,2 18,5 17,8 28 15 41 22 S 1010,3 13 0 2,8
12.08.2018 09:00:00 17,6 17,6 17,3 18,4 17,8 26 14 50 27 S 1010,9 14 0 9,5
12.08.2018 08:00:00 17,4 17,4 17,0 18,5 17,8 23 12 43 23 S 1011,4 2,6 0 9,8
12.08.2018 07:00:00 17,3 17,1 17,0 19,2 17,8 28 15 44 24 S 1011,7 7 0 2,4
12.08.2018 06:00:00 17,5 16,9 17,0 19,2 17,8 20 11 37 20 SSW 1012,8 7 0 1,4
12.08.2018 05:00:00 18,1 15,7 17,9 19,3 17,8 22 12 40 21 SSW 1013,8 36 0 0,0
12.08.2018 04:00:00 17,9 15,2 17,3 19,3 17,8 24 13 38 21 SSW 1014,6 60 0 0,0
12.08.2018 03:00:00 17,6 14,9 17,2 19,4 17,8 21 12 37 20 S 1015,2 60 0 0,0
12.08.2018 02:00:00 17,5 14,8 17,1 19,5 17,8 22 12 34 19 S 1016,1 60 0 0,0
12.08.2018 01:00:00 17,3 14,6 17,0 19,5 17,8 23 12 36 20 S 1017,0 60 0 0,0
12.08.2018 00:00:00 17,4 14,5 16,9 19,5 17,8 20 11 32 17 S 1017,8 60 0 0,0
11.08.2018 23:00:00 17,5 14,0 17,1 19,6 17,8 19 11 31 17 S 1018,6 60 0 0,0
11.08.2018 22:00:00 17,6 13,5 17,1 19,5 17,8 22 12 35 19 S 1019,0 60 0 0,0
11.08.2018 21:00:00 18,3 13,6 18,1 19,5 17,8 23 13 41 22 SSW 1019,4 60 29 0,0
11.08.2018 20:00:00 19,1 13,9 20,0 19,4 17,8 27 15 47 26 S 1019,7 51 28 0,0
11.08.2018 19:00:00 20,7 13,9 22,1 19,2 17,8 30 16 47 26 S 1020,0 21 60 0,0
11.08.2018 18:00:00 20,8 13,5 24,0 19,1 17,8 35 19 50 27 SSW 1020,6 23 49 0,0
11.08.2018 17:00:00 20,2 12,7 23,4 18,9 17,8 34 19 53 28 SSW 1021,3 25 40 0,0
11.08.2018 16:00:00 21,3 14,0 25,7 18,8 17,8 35 19 50 27 SSW 1021,9 27 19 0,0
11.08.2018 15:00:00 20,5 13,2 24,3 18,7 17,8 34 19 50 27 SSW 1022,3 24 0 0,0
11.08.2018 14:00:00 20,7 13,4 25,3 18,6 17,9 33 18 48 26 SSW 1022,6 31 17 0,0
11.08.2018 13:00:00 20,2 13,6 23,6 18,5 17,8 31 17 45 24 SSW 1022,8 24 4 0,0
11.08.2018 12:00:00 19,2 13,6 21,5 18,5 17,9 29 16 45 24 SSW 1023,0 24 0 0,0
11.08.2018 11:00:00 18,8 14,1 20,8 18,5 17,8 29 16 40 21 SSW 1023,3 39 2 0,0
11.08.2018 10:00:00 18,0 14,9 18,6 18,6 17,9 23 12 34 18 SSW 1023,4 7 3 0,0
11.08.2018 09:00:00 16,7 15,9 16,2 18,6 17,8 16 9 27 15 SSW 1023,7 34 0 0,0
11.08.2018 08:00:00 15,8 15,6 15,1 18,6 17,9 13 7 21 11 S 1023,7 22 0 0,0
11.08.2018 07:00:00 15,4 15,2 14,9 18,7 17,9 13 7 18 10 S 1023,7 18 0 0,0
11.08.2018 06:00:00 15,1 14,8 14,1 18,7 17,9 10 5 16 9 S 1024,0 28 0 0,0
11.08.2018 05:00:00 15,0 14,5 14,1 18,8 17,9 10 5 15 8 S 1024,1 19 0 0,0
11.08.2018 04:00:00 15,3 14,8 14,1 18,8 17,9 10 5 13 7 S 1024,5 30 0 0,0
11.08.2018 03:00:00 15,7 15,1 14,5 18,9 17,9 5 3 14 7 SW 1024,6 31 0 0,0
11.08.2018 02:00:00 15,9 15,3 15,0 18,9 17,9 10 6 23 12 SW 1025,0 37 0 0,0
11.08.2018 01:00:00 16,0 15,2 15,3 19,0 17,9 11 6 16 9 SW 1025,1 39 0 0,0
11.08.2018 00:00:00 15,6 14,8 14,3 19,0 17,9 9 5 16 9 SW 1025,1 36 0 0,0
10.08.2018 23:00:00 15,2 14,1 13,5 19,0 17,9 7 4 14 8 SW 1024,8 41 0 0,0
10.08.2018 22:00:00 15,4 12,9 13,7 19,0 17,9 9 5 22 12 WSW 1024,5 38 0 0,0
10.08.2018 21:00:00 17,4 13,9 17,6 19,0 17,9 13 7 29 16 W 1024,0 57 1 0,0
10.08.2018 20:00:00 17,9 13,2 18,8 18,9 17,9 16 9 31 17 W 1023,7 48 0 0,0
10.08.2018 19:00:00 18,1 13,6 19,6 18,9 17,9 19 11 42 23 WSW 1023,7 46 15 0,0
10.08.2018 18:00:00 18,1 13,6 19,4 18,8 17,9 22 12 42 23 WSW 1023,6 38 7 0,0

tt = temperature
td = dewpoint
tt 5cm = temperature 5cm
tt -20cm = temperature -20cm
tt -100cm = temperature -100cm
ff = wind speed
fx = gusts
dd = wind direction
ppp = reduced air pressure
vv = visibility
sd = sunshine duration
rr = precipitation

Next stations